Location: Days
(41.3591°N, 106.7339°W)
Time: 00:27:36
(UTC+00:00)

X-37B - Visible Passes

Search period start: 27 January 2022 00:00
Search period end: 06 February 2022 00:00
Orbit: 334 x 337 km, 45.0° (Epoch: 11 January)

Date Brightness Start Highest point End Pass type
(mag) Time Alt. Az. Time Alt. Az. Time Alt. Az.
27 Jan 2.6 00:52:34 10° S 00:54:10 14° SE 00:55:45 10° ESE visible
27 Jan 3.1 02:26:28 10° WSW 02:27:26 19° WSW 02:27:26 19° WSW visible
28 Jan 1.3 01:11:45 10° SW 01:14:21 34° SSE 01:15:56 19° E visible
28 Jan 4.0 02:47:01 10° W 02:47:10 11° W 02:47:10 11° W visible
29 Jan 0.2 01:31:54 10° WSW 01:34:43 85° SSE 01:35:37 39° ENE visible
30 Jan 0.7 01:52:26 10° W 01:55:13 50° NNW 01:55:16 50° N visible
31 Jan 2.2 02:13:07 10° WNW 02:14:53 28° NW 02:14:53 28° NW visible
01 Feb 0.8 00:57:52 10° W 01:00:39 51° NNW 01:03:15 11° ENE visible
01 Feb 3.3 02:33:44 10° WNW 02:34:29 16° WNW 02:34:29 16° WNW visible
02 Feb 1.2 01:18:33 10° WNW 01:21:14 37° N 01:22:51 19° NE visible
03 Feb 1.1 01:39:10 10° WNW 01:41:51 37° N 01:42:28 32° NE visible
04 Feb 0.8 01:59:39 10° WNW 02:02:08 48° NNW 02:02:08 48° NNW visible
05 Feb 1.9 02:20:05 10° WNW 02:21:52 34° WNW 02:21:52 34° WNW visible
